Weather in Strachovo

Russia / Bryansk Oblast     52°08′53″N   34°08′25″E
temp.,
°C
wind,
m/s
gust,
m/s
humid.,
%
clouds,
%
prec.,
mm/h
press.,
hPa
HPBL,
m
21 april, wed
wed2100:00+4nne4794100 0.0 1007344
03:00+3n4595100 0.0 1007367
06:00+3nnw3593100 0.0 1007372
09:00+5nw2385100 0.0 1009452
12:00+6w3373100 0.1 1010881
15:00+5wsw3493100 1.1 1012581
18:00+4sw3593100 3.3 1013416
21:00+4ssw369478 3.7 1014259
22 april, thu
thu2200:00+3s369675 0.0 1015142
03:00+3s4994100 0.0 1015186
06:00+4s379397 0.4 1015177
09:00+9ssw597897 0.5 1016455
12:00+13sw7106579 0.4 10161464
15:00+14ssw8116481 1.0 10161533
18:00+13sw7116888 1.6 1015891
21:00+10s5128094 1.7 1016266
23 april, fri
fri2300:00+9s5158068 0.2 1016371
03:00+8s5148583 0.8 1016334
06:00+8s5128592 0.1 1016340
09:00+11s7127319 0.2 1015761
12:00+14ssw7116180 0.2 10141565
15:00+12wsw587799 2.9 1013820
18:00+6nw5691100 2.2 1014485
21:00+5nw4692100 2.4 1013618
24 april, sat
sat2400:00+4wnw4996100 2.4 1013527
03:00+4w3789100 3.4 1012541
06:00+2w49915 0.0 1013287
09:00+5w69675 0.0 1013867
12:00+8w7105287 0.1 10131883
15:00+8w81150100 0.5 10132168
18:00+6w710625 0.4 10131476
21:00+3w4107648 0.4 1014344
25 april, sun
sun2500:00+2wsw4108110 0.0 1014274
03:00+1wsw498787 0.0 1014258
06:00+1sw499141 0.0 1014250
09:00+5wsw58695 0.0 1014861
12:00+7wsw8105693 0.9 10142035
15:00+8wsw81043100 1.7 10132562
18:00+6w7105729 0.3 10131498
21:00+2wsw38770 0.3 1015191